DECAYED
Showing default

KUIPER-P2, 58013 (Decayed)

Orbit data source: Space-Track

KUIPER-P2, 58013 was a payload satellite owned by Kuiper Systems (US) in LEO that was launched on Fri, 06 Oct 2023 UTC via an ATLAS V 501 launch vehicle from the Air Force Eastern Test Range (AFETR). Payload-class satellites include a variety of spacecraft equipped with specific instruments for various scientific and technological missions. These include communications satellites like Starlink; space stations such as the ISS; scientific satellites like the Hubble; Earth observation satellites from companies like Planet Labs, Umbra, and HawkEye 360; GPS; miniature CubeSats for education and research; and military/defense satellites.

Not visible in the next 10 days
Identifier
58013, 2023-154A
Orbit
Decayed
Last TLE update
2 months ago
Origin
Manufacturer
Kuiper Systems
Mission
Decayed Commercial Communications
Bus & Motor
KUIPER, Unknown motor
Mass
~600 kg wet, ~600 kg dry
Launch date (UTC)
2023-10-06 (2 years ago)
Launch vehicle
ATLAS V 501
Launch site
Air Force Eastern Test Range (AFETR)
Object type
Payload
Rocket body
Debris
Shape & HBR
Box + 2 Pan, 10 m
Radar Cross Section
10.304 m², Large (>1 m²)

Expand to show TLE details & history

TLE from 2 months ago
0 KUIPER-P2
1 58013U 23154A   25118.58335648  .00468493  82989-4  98019-3 0  9995
2 58013  29.9535 181.0087 0003053  52.3598 284.3262 15.97756228 87778
Epoch: 2025-04-28T14:00Z
TLE epoch observation values (Epoch: 2025-04-28T14:00:01.999Z)
Latitude
-11.50644°
Longitude
93.64125°
Altitude
280.687 km
Speed
7.741 km/s
True Right ascension
10h 41m 46s
True Declination
-11° 26' 05"
Sunlit
Object was in full shadow at epoch
Visualization orbit readout
Visualization observer readout
Orbital elements
Apogee altitude
286.826 km
Perigee altitude
282.758 km
Semi-major axis
6,662.929 km
Eccentricity
0.00031
Inclination
29.9535°
RAAN
181.0087°
Arg. of periapsis
52.3598°
True anomaly
Unknown
Mean anomaly
284.3262°
Eccentric anomaly
Unknown
Mean motion
3.99067 °/min
Orbital period
90.21 mins
BSTAR
0.00098019
Loading maneuver chart data...
Loading SW <> Apogee altitude chart data...
Loading historical data...
Loading historical data...
Loading historical data...
Loading historical data...
Loading historical data...
Loading historical data...
Loading historical data...
Other satellites on launch #154 in the year 2023 (2023-10-06 UTC)

KUIPER-P2 Visibility

Observer location: undefined°, undefined°

This satellite is decayed
Span
Click to sort rows by Start time (UTC) header in descending order
Start Az.
Max El. time (UTC)
Max El. Az.
Max El.
End time (UTC)
End Az.
|